owner,sensor,date,latitude,longitude,vertical_datum,wind_speed,wind_to_direction,wind_speed_of_gust,qcFlag 
TCOON,ioos:station:TCOON:057:1,2008-01-01T00:00:00Z,28.4460,-96.3961,0.0,3.1,102.0,3.2,'11111222,11111222,11111222' 
TCOON,ioos:station:TCOON:057:1,2008-01-01T01:00:00Z,28.4460,-96.3961,0.0,2.9,128.0,3.0,'11111222,11111222,11111222' 
TCOON,ioos:station:TCOON:057:1,2008-01-01T03:00:00Z,28.4460,-96.3961,0.0,11.9,6.0,14.6,'11111222,11111222,11111222' 
TCOON,ioos:station:TCOON:057:1,2008-01-01T04:00:00Z,28.4460,-96.3961,0.0,14.2,9.0,17.5,'11111222,11111222,11111222' 
TCOON,ioos:station:TCOON:057:1,2008-01-01T05:00:00Z,28.4460,-96.3961,0.0,12.4,12.0,14.7,'11111222,11111222,11111222' 
TCOON,ioos:station:TCOON:057:1,2008-01-01T06:00:00Z,28.4460,-96.3961,0.0,11.3,19.0,14.2,'11111222,11111222,11111222' 
TCOON,ioos:station:TCOON:057:1,2008-01-01T07:00:00Z,28.4460,-96.3961,0.0,13.7,18.0,15.8,'11111222,11111222,11111222' 
TCOON,ioos:station:TCOON:057:1,2008-01-01T08:00:00Z,28.4460,-96.3961,0.0,12.7,16.0,14.5,'11111222,11111222,11111222' 
TCOON,ioos:station:TCOON:057:1,2008-01-01T09:00:00Z,28.4460,-96.3961,0.0,12.7,17.0,14.3,'11111222,11111222,11111222' 
TCOON,ioos:station:TCOON:057:1,2008-01-01T10:00:00Z,28.4460,-96.3961,0.0,12.0,15.0,13.7,'11111222,11111222,11111222' 
TCOON,ioos:station:TCOON:057:1,2008-01-01T11:00:00Z,28.4460,-96.3961,0.0,11.4,20.0,12.7,'11111222,11111222,11111222' 
TCOON,ioos:station:TCOON:057:1,2008-01-01T12:00:00Z,28.4460,-96.3961,0.0,10.7,15.0,12.2,'11111222,11111222,11111222' 
TCOON,ioos:station:TCOON:057:1,2008-01-01T13:00:00Z,28.4460,-96.3961,0.0,11.4,12.0,13.8,'11111222,11111222,11111222' 
TCOON,ioos:station:TCOON:057:1,2008-01-01T14:00:00Z,28.4460,-96.3961,0.0,11.8,21.0,14.3,'11111222,11111222,11111222' 
TCOON,ioos:station:TCOON:057:1,2008-01-01T15:00:00Z,28.4460,-96.3961,0.0,11.1,16.0,12.4,'11111222,11111222,11111222' 
TCOON,ioos:station:TCOON:057:1,2008-01-01T16:00:00Z,28.4460,-96.3961,0.0,10.9,23.0,12.2,'11111222,11111222,11111222' 
TCOON,ioos:station:TCOON:057:1,2008-01-01T17:00:00Z,28.4460,-96.3961,0.0,10.8,18.0,12.4,'11111222,11111222,11111222' 
TCOON,ioos:station:TCOON:057:1,2008-01-01T18:00:00Z,28.4460,-96.3961,0.0,9.9,17.0,11.6,'11111222,11111222,11111222' 
TCOON,ioos:station:TCOON:057:1,2008-01-01T19:00:00Z,28.4460,-96.3961,0.0,9.7,4.0,11.3,'11111222,11111222,11111222' 
TCOON,ioos:station:TCOON:057:1,2008-01-01T20:00:00Z,28.4460,-96.3961,0.0,10.2,11.0,11.9,'11111222,11111222,11111222' 
TCOON,ioos:station:TCOON:057:1,2008-01-01T21:00:00Z,28.4460,-96.3961,0.0,9.6,5.0,11.5,'11111222,11111222,11111222' 
TCOON,ioos:station:TCOON:057:1,2008-01-01T22:00:00Z,28.4460,-96.3961,0.0,9.3,7.0,10.6,'11111222,11111222,11111222' 
TCOON,ioos:station:TCOON:057:1,2008-01-01T23:00:00Z,28.4460,-96.3961,0.0,10.6,5.0,12.1,'11111222,11111222,11111222' 
TCOON,ioos:station:TCOON:057:1,2008-01-02T00:00:00Z,28.4460,-96.3961,0.0,11.4,9.0,13.2,'11111222,11111222,11111222' 
TCOON,ioos:station:TCOON:057:1,2008-01-02T01:00:00Z,28.4460,-96.3961,0.0,8.5,2.0,9.6,'11111222,11111222,11111222' 
TCOON,ioos:station:TCOON:057:1,2008-01-02T02:00:00Z,28.4460,-96.3961,0.0,10.0,7.0,11.8,'11111222,11111222,11111222' 
TCOON,ioos:station:TCOON:057:1,2008-01-02T03:00:00Z,28.4460,-96.3961,0.0,8.7,7.0,9.7,'11111222,11111222,11111222' 
TCOON,ioos:station:TCOON:057:1,2008-01-02T04:00:00Z,28.4460,-96.3961,0.0,9.0,8.0,10.0,'11111222,11111222,11111222' 
TCOON,ioos:station:TCOON:057:1,2008-01-02T05:00:00Z,28.4460,-96.3961,0.0,9.4,24.0,10.7,'11111222,11111222,11111222' 
TCOON,ioos:station:TCOON:057:1,2008-01-02T06:00:00Z,28.4460,-96.3961,0.0,9.4,25.0,11.7,'11111222,11111222,11111222' 
TCOON,ioos:station:TCOON:057:1,2008-01-02T07:00:00Z,28.4460,-96.3961,0.0,10.2,24.0,11.6,'11111222,11111222,11111222' 
TCOON,ioos:station:TCOON:057:1,2008-01-02T08:00:00Z,28.4460,-96.3961,0.0,9.4,19.0,10.7,'11111222,11111222,11111222' 
TCOON,ioos:station:TCOON:057:1,2008-01-02T09:00:00Z,28.4460,-96.3961,0.0,11.0,20.0,12.9,'11111222,11111222,11111222' 
TCOON,ioos:station:TCOON:057:1,2008-01-02T10:00:00Z,28.4460,-96.3961,0.0,10.4,16.0,12.6,'11111222,11111222,11111222' 
TCOON,ioos:station:TCOON:057:1,2008-01-02T11:00:00Z,28.4460,-96.3961,0.0,10.3,16.0,11.5,'11111222,11111222,11111222' 
TCOON,ioos:station:TCOON:057:1,2008-01-02T12:00:00Z,28.4460,-96.3961,0.0,10.1,21.0,12.7,'11111222,11111222,11111222' 
TCOON,ioos:station:TCOON:057:1,2008-01-02T13:00:00Z,28.4460,-96.3961,0.0,9.5,18.0,10.9,'11111222,11111222,11111222' 
TCOON,ioos:station:TCOON:057:1,2008-01-02T14:00:00Z,28.4460,-96.3961,0.0,8.7,13.0,10.8,'11111222,11111222,11111222' 
TCOON,ioos:station:TCOON:057:1,2008-01-02T15:00:00Z,28.4460,-96.3961,0.0,8.4,21.0,9.9,'11111222,11111222,11111222' 
TCOON,ioos:station:TCOON:057:1,2008-01-02T16:00:00Z,28.4460,-96.3961,0.0,8.4,23.0,9.6,'11111222,11111222,11111222' 
TCOON,ioos:station:TCOON:057:1,2008-01-02T17:00:00Z,28.4460,-96.3961,0.0,8.2,22.0,9.7,'11111222,11111222,11111222' 
TCOON,ioos:station:TCOON:057:1,2008-01-02T18:00:00Z,28.4460,-96.3961,0.0,7.3,13.0,9.2,'11111222,11111222,11111222' 
TCOON,ioos:station:TCOON:057:1,2008-01-02T19:00:00Z,28.4460,-96.3961,0.0,7.8,2.0,8.7,'11111222,11111222,11111222' 
TCOON,ioos:station:TCOON:057:1,2008-01-02T20:00:00Z,28.4460,-96.3961,0.0,8.0,7.0,9.0,'11111222,11111222,11111222' 
TCOON,ioos:station:TCOON:057:1,2008-01-02T21:00:00Z,28.4460,-96.3961,0.0,7.6,10.0,8.7,'11111222,11111222,11111222' 
TCOON,ioos:station:TCOON:057:1,2008-01-02T22:00:00Z,28.4460,-96.3961,0.0,6.2,4.0,7.7,'11111222,11111222,11111222' 
TCOON,ioos:station:TCOON:057:1,2008-01-02T23:00:00Z,28.4460,-96.3961,0.0,7.0,360.0,9.0,'11111222,11144222,11111222' 
TCOON,ioos:station:TCOON:057:1,2008-01-03T00:00:00Z,28.4460,-96.3961,0.0,7.5,4.0,9.1,'11111222,11111222,11111222' 
TCOON,ioos:station:TCOON:057:1,2008-01-03T01:00:00Z,28.4460,-96.3961,0.0,7.7,6.0,10.1,'11111222,11111222,11111222' 
TCOON,ioos:station:TCOON:057:1,2008-01-03T02:00:00Z,28.4460,-96.3961,0.0,8.6,6.0,10.2,'11111222,11111222,11111222' 
TCOON,ioos:station:TCOON:057:1,2008-01-03T03:00:00Z,28.4460,-96.3961,0.0,7.9,7.0,8.8,'11111222,11111222,11111222' 
TCOON,ioos:station:TCOON:057:1,2008-01-03T04:00:00Z,28.4460,-96.3961,0.0,7.5,18.0,8.9,'11111222,11111222,11111222' 
TCOON,ioos:station:TCOON:057:1,2008-01-03T05:00:00Z,28.4460,-96.3961,0.0,8.0,28.0,9.5,'11111222,11111222,11111222' 
TCOON,ioos:station:TCOON:057:1,2008-01-03T06:00:00Z,28.4460,-96.3961,0.0,8.1,43.0,9.4,'11111222,11111222,11111222' 
TCOON,ioos:station:TCOON:057:1,2008-01-03T07:00:00Z,28.4460,-96.3961,0.0,8.2,49.0,9.3,'11111222,11111222,11111222' 
TCOON,ioos:station:TCOON:057:1,2008-01-03T08:00:00Z,28.4460,-96.3961,0.0,8.6,56.0,10.0,'11111222,11111222,11111222' 
TCOON,ioos:station:TCOON:057:1,2008-01-03T09:00:00Z,28.4460,-96.3961,0.0,7.9,56.0,9.4,'11111222,11111222,11111222' 
TCOON,ioos:station:TCOON:057:1,2008-01-03T10:00:00Z,28.4460,-96.3961,0.0,7.7,41.0,9.3,'11111222,11111222,11111222' 
TCOON,ioos:station:TCOON:057:1,2008-01-03T11:00:00Z,28.4460,-96.3961,0.0,8.5,52.0,9.3,'11111222,11111222,11111222' 
TCOON,ioos:station:TCOON:057:1,2008-01-03T12:00:00Z,28.4460,-96.3961,0.0,8.1,46.0,8.8,'11111222,11111222,11111222' 
TCOON,ioos:station:TCOON:057:1,2008-01-03T13:00:00Z,28.4460,-96.3961,0.0,8.5,40.0,9.4,'11111222,11111222,11111222' 
TCOON,ioos:station:TCOON:057:1,2008-01-03T14:00:00Z,28.4460,-96.3961,0.0,9.3,48.0,10.6,'11111222,11111222,11111222' 
TCOON,ioos:station:TCOON:057:1,2008-01-03T15:00:00Z,28.4460,-96.3961,0.0,8.4,48.0,9.5,'11111222,11111222,11111222' 
TCOON,ioos:station:TCOON:057:1,2008-01-03T16:00:00Z,28.4460,-96.3961,0.0,8.4,51.0,9.2,'11111222,11111222,11111222' 
TCOON,ioos:station:TCOON:057:1,2008-01-03T17:00:00Z,28.4460,-96.3961,0.0,8.5,63.0,9.3,'11111222,11111222,11111222' 
TCOON,ioos:station:TCOON:057:1,2008-01-03T18:00:00Z,28.4460,-96.3961,0.0,7.9,58.0,8.7,'11111222,11111222,11111222' 
TCOON,ioos:station:TCOON:057:1,2008-01-03T19:00:00Z,28.4460,-96.3961,0.0,7.1,103.0,8.3,'11111222,11111222,11111222' 
TCOON,ioos:station:TCOON:057:1,2008-01-03T20:00:00Z,28.4460,-96.3961,0.0,8.6,89.0,10.5,'11111222,11111222,11111222' 
TCOON,ioos:station:TCOON:057:1,2008-01-03T21:00:00Z,28.4460,-96.3961,0.0,8.6,92.0,9.7,'11111222,11111222,11111222' 
TCOON,ioos:station:TCOON:057:1,2008-01-03T22:00:00Z,28.4460,-96.3961,0.0,8.5,98.0,9.3,'11111222,11111222,11111222' 
TCOON,ioos:station:TCOON:057:1,2008-01-03T23:00:00Z,28.4460,-96.3961,0.0,8.4,101.0,9.7,'11111222,11111222,11111222' 
TCOON,ioos:station:TCOON:057:1,2008-01-04T00:00:00Z,28.4460,-96.3961,0.0,8.0,98.0,9.1,'11111222,11111222,11111222' 
TCOON,ioos:station:TCOON:057:1,2008-01-04T01:00:00Z,28.4460,-96.3961,0.0,9.0,106.0,10.1,'11111222,11111222,11111222' 
TCOON,ioos:station:TCOON:057:1,2008-01-04T02:00:00Z,28.4460,-96.3961,0.0,6.6,103.0,7.9,'11111222,11111222,11111222' 
TCOON,ioos:station:TCOON:057:1,2008-01-04T03:00:00Z,28.4460,-96.3961,0.0,5.3,111.0,6.3,'11111222,11111222,11111222' 
TCOON,ioos:station:TCOON:057:1,2008-01-04T04:00:00Z,28.4460,-96.3961,0.0,5.1,146.0,5.6,'11111222,11111222,11111222' 
TCOON,ioos:station:TCOON:057:1,2008-01-04T05:00:00Z,28.4460,-96.3961,0.0,5.0,142.0,5.4,'11111222,11111222,11111222' 
TCOON,ioos:station:TCOON:057:1,2008-01-04T06:00:00Z,28.4460,-96.3961,0.0,3.9,157.0,4.6,'11111222,11111222,11111222' 
TCOON,ioos:station:TCOON:057:1,2008-01-04T07:00:00Z,28.4460,-96.3961,0.0,4.9,135.0,5.6,'11111222,11111222,11111222' 
TCOON,ioos:station:TCOON:057:1,2008-01-04T08:00:00Z,28.4460,-96.3961,0.0,4.0,132.0,4.5,'11111222,11111222,11111222' 
TCOON,ioos:station:TCOON:057:1,2008-01-04T09:00:00Z,28.4460,-96.3961,0.0,2.6,115.0,2.8,'11111222,11111222,11111222' 
TCOON,ioos:station:TCOON:057:1,2008-01-04T10:00:00Z,28.4460,-96.3961,0.0,2.9,123.0,3.1,'11111222,11111222,11111222' 
TCOON,ioos:station:TCOON:057:1,2008-01-04T11:00:00Z,28.4460,-96.3961,0.0,3.4,122.0,3.8,'11111222,11111222,11111222' 
TCOON,ioos:station:TCOON:057:1,2008-01-04T12:00:00Z,28.4460,-96.3961,0.0,3.5,140.0,3.9,'11111222,11111222,11111222' 
TCOON,ioos:station:TCOON:057:1,2008-01-04T13:00:00Z,28.4460,-96.3961,0.0,3.2,128.0,3.5,'11111222,11111222,11111222' 
TCOON,ioos:station:TCOON:057:1,2008-01-04T14:00:00Z,28.4460,-96.3961,0.0,4.1,120.0,4.3,'11111222,11111222,11111222' 
TCOON,ioos:station:TCOON:057:1,2008-01-04T15:00:00Z,28.4460,-96.3961,0.0,4.5,128.0,4.8,'11111222,11111222,11111222' 
TCOON,ioos:station:TCOON:057:1,2008-01-04T16:00:00Z,28.4460,-96.3961,0.0,4.2,130.0,4.6,'11111222,11111222,11111222' 
TCOON,ioos:station:TCOON:057:1,2008-01-04T17:00:00Z,28.4460,-96.3961,0.0,5.6,136.0,6.0,'11111222,11111222,11111222' 
TCOON,ioos:station:TCOON:057:1,2008-01-04T18:00:00Z,28.4460,-96.3961,0.0,6.7,143.0,7.7,'11111222,11111222,11111222' 
TCOON,ioos:station:TCOON:057:1,2008-01-04T19:00:00Z,28.4460,-96.3961,0.0,5.7,134.0,6.4,'11111222,11111222,11111222' 
TCOON,ioos:station:TCOON:057:1,2008-01-04T20:00:00Z,28.4460,-96.3961,0.0,6.3,138.0,7.3,'11111222,11111222,11111222' 
TCOON,ioos:station:TCOON:057:1,2008-01-04T21:00:00Z,28.4460,-96.3961,0.0,7.0,137.0,7.9,'11111222,11111222,11111222' 
TCOON,ioos:station:TCOON:057:1,2008-01-04T22:00:00Z,28.4460,-96.3961,0.0,7.4,145.0,8.6,'11111222,11111222,11111222' 
TCOON,ioos:station:TCOON:057:1,2008-01-04T23:00:00Z,28.4460,-96.3961,0.0,5.6,147.0,6.2,'11111222,11111222,11111222' 
TCOON,ioos:station:TCOON:057:1,2008-01-05T00:00:00Z,28.4460,-96.3961,0.0,3.8,131.0,4.3,'11111222,11111222,11111222' 
TCOON,ioos:station:TCOON:057:1,2008-01-05T01:00:00Z,28.4460,-96.3961,0.0,3.3,132.0,3.6,'11111222,11111222,11111222' 
TCOON,ioos:station:TCOON:057:1,2008-01-05T02:00:00Z,28.4460,-96.3961,0.0,3.8,141.0,4.0,'11111222,11111222,11111222' 
TCOON,ioos:station:TCOON:057:1,2008-01-05T03:00:00Z,28.4460,-96.3961,0.0,3.0,132.0,3.4,'11111222,11111222,11111222' 
TCOON,ioos:station:TCOON:057:1,2008-01-05T04:00:00Z,28.4460,-96.3961,0.0,4.5,159.0,4.8,'11111222,11111222,11111222' 
TCOON,ioos:station:TCOON:057:1,2008-01-05T05:00:00Z,28.4460,-96.3961,0.0,3.5,172.0,3.7,'11111222,11111222,11111222' 
TCOON,ioos:station:TCOON:057:1,2008-01-05T06:00:00Z,28.4460,-96.3961,0.0,3.1,188.0,3.4,'11111222,11111222,11111222' 
TCOON,ioos:station:TCOON:057:1,2008-01-05T07:00:00Z,28.4460,-96.3961,0.0,3.0,178.0,3.1,'11111222,11111222,11111222' 
TCOON,ioos:station:TCOON:057:1,2008-01-05T08:00:00Z,28.4460,-96.3961,0.0,3.1,168.0,3.2,'11111222,11111222,11111222' 
TCOON,ioos:station:TCOON:057:1,2008-01-05T09:00:00Z,28.4460,-96.3961,0.0,2.6,171.0,2.8,'11111222,11111222,11111222' 
TCOON,ioos:station:TCOON:057:1,2008-01-05T10:00:00Z,28.4460,-96.3961,0.0,2.8,185.0,3.2,'11111222,11111222,11111222' 
TCOON,ioos:station:TCOON:057:1,2008-01-05T11:00:00Z,28.4460,-96.3961,0.0,2.9,178.0,3.0,'11111222,11111222,11111222' 
TCOON,ioos:station:TCOON:057:1,2008-01-05T12:00:00Z,28.4460,-96.3961,0.0,1.7,207.0,1.9,'11111222,11111222,11111222' 
TCOON,ioos:station:TCOON:057:1,2008-01-05T13:00:00Z,28.4460,-96.3961,0.0,1.9,164.0,2.0,'11111222,11111222,11111222' 
TCOON,ioos:station:TCOON:057:1,2008-01-05T14:00:00Z,28.4460,-96.3961,0.0,2.3,322.0,2.4,'11111222,11111222,11111222' 
TCOON,ioos:station:TCOON:057:1,2008-01-05T15:00:00Z,28.4460,-96.3961,0.0,1.1,134.0,1.3,'11111222,11111222,11111222' 
TCOON,ioos:station:TCOON:057:1,2008-01-05T16:00:00Z,28.4460,-96.3961,0.0,0.9,135.0,1.2,'11111222,11111222,11111222' 
TCOON,ioos:station:TCOON:057:1,2008-01-05T17:00:00Z,28.4460,-96.3961,0.0,3.4,170.0,3.7,'11111222,11111222,11111222' 
TCOON,ioos:station:TCOON:057:1,2008-01-05T18:00:00Z,28.4460,-96.3961,0.0,4.7,206.0,5.9,'11111222,11111222,11111222' 
TCOON,ioos:station:TCOON:057:1,2008-01-05T19:00:00Z,28.4460,-96.3961,0.0,5.5,209.0,7.1,'11111222,11111222,11111222' 
TCOON,ioos:station:TCOON:057:1,2008-01-05T20:00:00Z,28.4460,-96.3961,0.0,4.8,166.0,5.9,'11111222,11111222,11111222' 
TCOON,ioos:station:TCOON:057:1,2008-01-05T21:00:00Z,28.4460,-96.3961,0.0,4.5,163.0,5.0,'11111222,11111222,11111222' 
TCOON,ioos:station:TCOON:057:1,2008-01-05T22:00:00Z,28.4460,-96.3961,0.0,3.5,166.0,3.7,'11111222,11111222,11111222' 
TCOON,ioos:station:TCOON:057:1,2008-01-05T23:00:00Z,28.4460,-96.3961,0.0,4.9,154.0,5.3,'11111222,11111222,11111222' 
TCOON,ioos:station:TCOON:057:1,2008-01-06T00:00:00Z,28.4460,-96.3961,0.0,4.3,160.0,4.7,'11111222,11111222,11111222' 
TCOON,ioos:station:TCOON:057:1,2008-01-06T01:00:00Z,28.4460,-96.3961,0.0,5.2,151.0,5.5,'11111222,11111222,11111222' 
TCOON,ioos:station:TCOON:057:1,2008-01-06T02:00:00Z,28.4460,-96.3961,0.0,4.0,146.0,4.2,'11111222,11111222,11111222' 
TCOON,ioos:station:TCOON:057:1,2008-01-06T03:00:00Z,28.4460,-96.3961,0.0,3.9,154.0,4.3,'11111222,11111222,11111222' 
TCOON,ioos:station:TCOON:057:1,2008-01-06T04:00:00Z,28.4460,-96.3961,0.0,4.4,155.0,4.8,'11111222,11111222,11111222' 
TCOON,ioos:station:TCOON:057:1,2008-01-06T05:00:00Z,28.4460,-96.3961,0.0,5.6,162.0,6.0,'11111222,11111222,11111222' 
TCOON,ioos:station:TCOON:057:1,2008-01-06T06:00:00Z,28.4460,-96.3961,0.0,4.7,165.0,5.1,'11111222,11111222,11111222' 
TCOON,ioos:station:TCOON:057:1,2008-01-06T07:00:00Z,28.4460,-96.3961,0.0,3.9,174.0,4.3,'11111222,11111222,11111222' 
TCOON,ioos:station:TCOON:057:1,2008-01-06T08:00:00Z,28.4460,-96.3961,0.0,3.8,168.0,4.2,'11111222,11111222,11111222' 
TCOON,ioos:station:TCOON:057:1,2008-01-06T09:00:00Z,28.4460,-96.3961,0.0,4.6,157.0,5.2,'11111222,11111222,11111222' 
TCOON,ioos:station:TCOON:057:1,2008-01-06T10:00:00Z,28.4460,-96.3961,0.0,5.1,157.0,5.7,'11111222,11111222,11111222' 
TCOON,ioos:station:TCOON:057:1,2008-01-06T11:00:00Z,28.4460,-96.3961,0.0,4.5,158.0,5.1,'11111222,11111222,11111222' 
TCOON,ioos:station:TCOON:057:1,2008-01-06T12:00:00Z,28.4460,-96.3961,0.0,3.0,160.0,3.4,'11111222,11111222,11111222' 
TCOON,ioos:station:TCOON:057:1,2008-01-06T13:00:00Z,28.4460,-96.3961,0.0,4.1,150.0,4.4,'11111222,11111222,11111222' 
TCOON,ioos:station:TCOON:057:1,2008-01-06T14:00:00Z,28.4460,-96.3961,0.0,4.7,152.0,5.3,'11111222,11111222,11111222' 
TCOON,ioos:station:TCOON:057:1,2008-01-06T15:00:00Z,28.4460,-96.3961,0.0,5.7,149.0,6.4,'11111222,11111222,11111222' 
TCOON,ioos:station:TCOON:057:1,2008-01-06T16:00:00Z,28.4460,-96.3961,0.0,6.1,149.0,6.7,'11111222,11111222,11111222' 
TCOON,ioos:station:TCOON:057:1,2008-01-06T17:00:00Z,28.4460,-96.3961,0.0,6.8,150.0,7.4,'11111222,11111222,11111222' 
TCOON,ioos:station:TCOON:057:1,2008-01-06T18:00:00Z,28.4460,-96.3961,0.0,6.6,158.0,7.7,'11111222,11111222,11111222' 
TCOON,ioos:station:TCOON:057:1,2008-01-06T19:00:00Z,28.4460,-96.3961,0.0,5.1,162.0,5.7,'11111222,11111222,11111222' 
TCOON,ioos:station:TCOON:057:1,2008-01-06T20:00:00Z,28.4460,-96.3961,0.0,5.7,153.0,6.4,'11111222,11111222,11111222' 
TCOON,ioos:station:TCOON:057:1,2008-01-06T21:00:00Z,28.4460,-96.3961,0.0,5.4,141.0,5.8,'11111222,11111222,11111222' 
TCOON,ioos:station:TCOON:057:1,2008-01-06T22:00:00Z,28.4460,-96.3961,0.0,6.5,134.0,7.4,'11111222,11111222,11111222' 
TCOON,ioos:station:TCOON:057:1,2008-01-06T23:00:00Z,28.4460,-96.3961,0.0,6.9,134.0,7.6,'11111222,11111222,11111222' 
TCOON,ioos:station:TCOON:057:1,2008-01-07T00:00:00Z,28.4460,-96.3961,0.0,7.3,140.0,8.2,'11111222,11111222,11111222' 
TCOON,ioos:station:TCOON:057:1,2008-01-07T01:00:00Z,28.4460,-96.3961,0.0,6.9,139.0,7.9,'11111222,11111222,11111222' 
TCOON,ioos:station:TCOON:057:1,2008-01-07T02:00:00Z,28.4460,-96.3961,0.0,5.2,138.0,5.7,'11111222,11111222,11111222' 
TCOON,ioos:station:TCOON:057:1,2008-01-07T03:00:00Z,28.4460,-96.3961,0.0,4.9,143.0,5.2,'11111222,11111222,11111222' 
TCOON,ioos:station:TCOON:057:1,2008-01-07T04:00:00Z,28.4460,-96.3961,0.0,5.4,146.0,6.2,'11111222,11111222,11111222' 
TCOON,ioos:station:TCOON:057:1,2008-01-07T05:00:00Z,28.4460,-96.3961,0.0,5.3,137.0,5.8,'11111222,11111222,11111222' 
TCOON,ioos:station:TCOON:057:1,2008-01-07T06:00:00Z,28.4460,-96.3961,0.0,6.3,148.0,6.9,'11111222,11111222,11111222' 
TCOON,ioos:station:TCOON:057:1,2008-01-07T07:00:00Z,28.4460,-96.3961,0.0,5.8,147.0,6.5,'11111222,11111222,11111222' 
TCOON,ioos:station:TCOON:057:1,2008-01-07T08:00:00Z,28.4460,-96.3961,0.0,7.1,149.0,7.9,'11111222,11111222,11111222' 
TCOON,ioos:station:TCOON:057:1,2008-01-07T09:00:00Z,28.4460,-96.3961,0.0,5.0,156.0,5.7,'11111222,11111222,11111222' 
TCOON,ioos:station:TCOON:057:1,2008-01-07T10:00:00Z,28.4460,-96.3961,0.0,3.3,157.0,3.7,'11111222,11111222,11111222' 
TCOON,ioos:station:TCOON:057:1,2008-01-07T11:00:00Z,28.4460,-96.3961,0.0,2.1,110.0,2.3,'11111222,11111222,11111222' 
TCOON,ioos:station:TCOON:057:1,2008-01-07T12:00:00Z,28.4460,-96.3961,0.0,3.2,140.0,3.7,'11111222,11111222,11111222' 
TCOON,ioos:station:TCOON:057:1,2008-01-07T13:00:00Z,28.4460,-96.3961,0.0,5.6,141.0,6.1,'11111222,11111222,11111222' 
TCOON,ioos:station:TCOON:057:1,2008-01-07T14:00:00Z,28.4460,-96.3961,0.0,6.6,145.0,7.1,'11111222,11111222,11111222' 
TCOON,ioos:station:TCOON:057:1,2008-01-07T15:00:00Z,28.4460,-96.3961,0.0,6.9,139.0,7.9,'11111222,11111222,11111222' 
TCOON,ioos:station:TCOON:057:1,2008-01-07T16:00:00Z,28.4460,-96.3961,0.0,7.6,140.0,8.8,'11111222,11111222,11111222' 
TCOON,ioos:station:TCOON:057:1,2008-01-07T17:00:00Z,28.4460,-96.3961,0.0,7.5,142.0,8.7,'11111222,11111222,11111222' 
TCOON,ioos:station:TCOON:057:1,2008-01-07T18:00:00Z,28.4460,-96.3961,0.0,6.7,139.0,7.6,'11111222,11111222,11111222' 
TCOON,ioos:station:TCOON:057:1,2008-01-07T19:00:00Z,28.4460,-96.3961,0.0,7.7,138.0,8.4,'11111222,11111222,11111222' 
TCOON,ioos:station:TCOON:057:1,2008-01-07T20:00:00Z,28.4460,-96.3961,0.0,6.0,137.0,6.6,'11111222,11111222,11111222' 
TCOON,ioos:station:TCOON:057:1,2008-01-07T21:00:00Z,28.4460,-96.3961,0.0,8.8,147.0,10.2,'11111222,11111222,11111222' 
TCOON,ioos:station:TCOON:057:1,2008-01-07T22:00:00Z,28.4460,-96.3961,0.0,7.5,150.0,8.7,'11111222,11111222,11111222' 
TCOON,ioos:station:TCOON:057:1,2008-01-07T23:00:00Z,28.4460,-96.3961,0.0,7.4,167.0,8.1,'11111222,11111222,11111222' 
TCOON,ioos:station:TCOON:057:1,2008-01-08T00:00:00Z,28.4460,-96.3961,0.0,5.1,134.0,5.6,'11111222,11111222,11111222' 
TCOON,ioos:station:TCOON:057:1,2008-01-08T01:00:00Z,28.4460,-96.3961,0.0,2.8,146.0,3.2,'11111222,11111222,11111222' 
TCOON,ioos:station:TCOON:057:1,2008-01-08T02:00:00Z,28.4460,-96.3961,0.0,5.1,141.0,5.5,'11111222,11111222,11111222' 
TCOON,ioos:station:TCOON:057:1,2008-01-08T03:00:00Z,28.4460,-96.3961,0.0,6.9,141.0,7.5,'11111222,11111222,11111222' 
TCOON,ioos:station:TCOON:057:1,2008-01-08T04:00:00Z,28.4460,-96.3961,0.0,6.9,149.0,7.9,'11111222,11111222,11111222' 
TCOON,ioos:station:TCOON:057:1,2008-01-08T05:00:00Z,28.4460,-96.3961,0.0,4.9,154.0,5.6,'11111222,11111222,11111222' 
TCOON,ioos:station:TCOON:057:1,2008-01-08T06:00:00Z,28.4460,-96.3961,0.0,5.8,150.0,6.2,'11111222,11111222,11111222' 
TCOON,ioos:station:TCOON:057:1,2008-01-08T07:00:00Z,28.4460,-96.3961,0.0,7.8,145.0,8.6,'11111222,11111222,11111222' 
TCOON,ioos:station:TCOON:057:1,2008-01-08T08:00:00Z,28.4460,-96.3961,0.0,8.0,147.0,8.9,'11111222,11111222,11111222' 
TCOON,ioos:station:TCOON:057:1,2008-01-08T09:00:00Z,28.4460,-96.3961,0.0,7.1,153.0,8.1,'11111222,11111222,11111222' 
TCOON,ioos:station:TCOON:057:1,2008-01-08T10:00:00Z,28.4460,-96.3961,0.0,8.4,152.0,9.3,'11111222,11111222,11111222' 
TCOON,ioos:station:TCOON:057:1,2008-01-08T11:00:00Z,28.4460,-96.3961,0.0,6.3,136.0,7.2,'11111222,11111222,11111222' 
TCOON,ioos:station:TCOON:057:1,2008-01-08T12:00:00Z,28.4460,-96.3961,0.0,4.9,130.0,5.8,'11111222,11111222,11111222' 
TCOON,ioos:station:TCOON:057:1,2008-01-08T13:00:00Z,28.4460,-96.3961,0.0,5.1,133.0,5.6,'11111222,11111222,11111222' 
TCOON,ioos:station:TCOON:057:1,2008-01-08T14:00:00Z,28.4460,-96.3961,0.0,3.1,138.0,3.5,'11111222,11111222,11111222' 
TCOON,ioos:station:TCOON:057:1,2008-01-08T15:00:00Z,28.4460,-96.3961,0.0,4.2,132.0,4.8,'11111222,11111222,11111222' 
TCOON,ioos:station:TCOON:057:1,2008-01-08T16:00:00Z,28.4460,-96.3961,0.0,5.1,128.0,5.6,'11111222,11111222,11111222' 
TCOON,ioos:station:TCOON:057:1,2008-01-08T17:00:00Z,28.4460,-96.3961,0.0,2.6,132.0,3.2,'11111222,11111222,11111222' 
TCOON,ioos:station:TCOON:057:1,2008-01-08T18:00:00Z,28.4460,-96.3961,0.0,3.4,128.0,3.8,'11111222,11111222,11111222' 
TCOON,ioos:station:TCOON:057:1,2008-01-08T19:00:00Z,28.4460,-96.3961,0.0,4.5,161.0,5.3,'11111222,11111222,11111222' 
TCOON,ioos:station:TCOON:057:1,2008-01-08T20:00:00Z,28.4460,-96.3961,0.0,2.2,127.0,2.4,'11111222,11111222,11111222' 
TCOON,ioos:station:TCOON:057:1,2008-01-08T21:00:00Z,28.4460,-96.3961,0.0,2.2,118.0,3.0,'11111222,11111222,11111222' 
TCOON,ioos:station:TCOON:057:1,2008-01-08T22:00:00Z,28.4460,-96.3961,0.0,1.8,76.0,1.8,'11111222,11111222,11111222' 
TCOON,ioos:station:TCOON:057:1,2008-01-08T23:00:00Z,28.4460,-96.3961,0.0,8.1,16.0,9.4,'11111222,11111222,11111222' 
TCOON,ioos:station:TCOON:057:1,2008-01-09T00:00:00Z,28.4460,-96.3961,0.0,9.0,8.0,11.1,'11111222,11111222,11111222' 
TCOON,ioos:station:TCOON:057:1,2008-01-09T01:00:00Z,28.4460,-96.3961,0.0,9.9,12.0,11.3,'11111222,11111222,11111222' 
TCOON,ioos:station:TCOON:057:1,2008-01-09T02:00:00Z,28.4460,-96.3961,0.0,6.6,13.0,8.0,'11111222,11111222,11111222' 
TCOON,ioos:station:TCOON:057:1,2008-01-09T03:00:00Z,28.4460,-96.3961,0.0,5.8,10.0,6.8,'11111222,11111222,11111222' 
TCOON,ioos:station:TCOON:057:1,2008-01-09T04:00:00Z,28.4460,-96.3961,0.0,6.8,7.0,7.9,'11111222,11111222,11111222' 
TCOON,ioos:station:TCOON:057:1,2008-01-09T05:00:00Z,28.4460,-96.3961,0.0,10.3,5.0,11.8,'11111222,11111222,11111222' 
TCOON,ioos:station:TCOON:057:1,2008-01-09T06:00:00Z,28.4460,-96.3961,0.0,10.1,5.0,11.2,'11111222,11111222,11111222' 
TCOON,ioos:station:TCOON:057:1,2008-01-09T07:00:00Z,28.4460,-96.3961,0.0,10.0,5.0,11.8,'11111222,11111222,11111222' 
TCOON,ioos:station:TCOON:057:1,2008-01-09T08:00:00Z,28.4460,-96.3961,0.0,9.8,11.0,11.6,'11111222,11111222,11111222' 
TCOON,ioos:station:TCOON:057:1,2008-01-09T09:00:00Z,28.4460,-96.3961,0.0,9.4,9.0,11.1,'11111222,11111222,11111222' 
TCOON,ioos:station:TCOON:057:1,2008-01-09T10:00:00Z,28.4460,-96.3961,0.0,10.3,6.0,11.4,'11111222,11111222,11111222' 
TCOON,ioos:station:TCOON:057:1,2008-01-09T11:00:00Z,28.4460,-96.3961,0.0,11.0,9.0,13.1,'11111222,11111222,11111222' 
TCOON,ioos:station:TCOON:057:1,2008-01-09T12:00:00Z,28.4460,-96.3961,0.0,8.8,21.0,10.0,'11111222,11111222,11111222' 